Vertical_Velocity
-0 2 1 1 0 1 -0 0 0 -1 -1 -0 0 -1 -0 -0 -0 -1 -1 -1 -2 -2 -1 -1 -1 -1 0 -0 -1 -2 -1 -1 -1
-1 0 -0 2 1 1 1 0 1 1 1 -0 -2 -1 0 1 1 0 -2 -1 -1 -2 -1 -2 -1 -0 -0 -1 -1 -1 -1 -2 -1
1 1 -1 0 -1 0 1 -1 1 0 0 -0 -1 -0 -1 0 1 1 1 -1 -1 -1 -2 -1 -1 -1 -0 -2 0 -1 0 -0 -1
2 1 1 -0 -1 -0 -0 -0 1 -0 0 0 0 -0 -0 -0 -1 0 0 0 1 -2 -1 -1 -2 -2 0 -1 0 -1 -1 -0 -1
-1 1 1 -1 1 -0 -1 -2 -2 -0 1 -0 -0 1 0 1 0 -1 -1 0 0 0 -1 -1 -1 -1 -1 -1 -2 -1 -1 -1 -0
0 -0 1 1 -0 0 0 -1 -1 0 1 0 -1 -0 -0 -1 -0 -0 -1 -1 -1 0 1 0 -1 -1 -0 -3 -1 -0 -1 0 -1
1 1 1 0 0 -0 -1 -2 -1 1 1 1 -1 -1 -1 -1 -1 -1 -1 -1 -0 -1 -0 0 -0 -1 -2 0 -2 -2 2 0 1
1 0 1 1 2 1 0 -2 -1 -0 1 1 -0 1 1 -1 -0 -1 -1 0 0 -0 -1 1 -0 -0 -1 -1 -0 -2 -3 -2 2
1 -0 -0 -1 -0 1 -1 -1 -1 -1 1 2 1 0 0 0 -0 0 -1 -0 -1 0 0 -0 -1 -1 -0 -0 1 1 -0 -2 -2
0 1 1 -1 -1 0 -2 -0 -3 -1 -0 0 1 1 1 1 1 1 -0 -0 -1 -1 -0 -0 -1 -0 0 -0 -1 0 2 0 -1
-0 0 -0 -0 -0 0 -0 -1 -2 -1 -1 1 0 -0 -1 1 1 0 2 0 -0 -0 -0 -0 0 -0 -0 0 -0 0 -2 0 1
-0 0 -0 -0 0 0 1 -0 -1 0 -1 0 -1 -0 -0 -0 1 0 1 -1 1 -0 0 -0 -0 -0 -0 0 0 -0 -0 -0 -1
1 1 -0 0 0 0 0 3 0 0 -1 1 -1 0 -1 -0 -0 1 0 -0 0 -0 0 -1 0 0 -1 0 0 0 -1 -1 0
0 1 0 -0 1 1 1 -1 0 -1 -0 -1 -1 1 1 0 -1 -0 -1 0 0 -0 -0 -0 -1 -0 -1 -0 -0 0 1 1 1
0 -1 -1 -1 -1 -0 0 -0 -1 -1 2 1 -0 0 0 -0 -0 1 1 -0 -0 0 0 -1 0 -1 -0 -0 1 0 -1 -1 -0
2 -0 -1 -0 0 -1 -2 -1 -0 -1 -2 -0 0 -3 -0 -0 0 0 -0 1 -0 -1 -0 1 1 0 0 -1 -0 -1 -1 -1 1
1 -0 -0 0 0 -3 -1 1 0 -0 -0 -0 -2 -2 -1 3 -1 0 0 0 1 1 1 0 1 -0 -0 -0 0 0 -1 -0 -0
0 0 -0 1 -1 2 -2 1 0 2 -1 0 -6 -1 -1 -2 -1 1 2 1 1 -0 0 0 1 1 1 0 -0 0 -0 -1 -1
1 1 -0 0 1 0 -2 -2 2 1 2 -1 -2 -3 -1 -0 -1 0 1 0 3 -0 -1 -1 0 1 1 1 1 0 1 -0 -0
0 -1 -1 -2 1 0 -1 -0 -2 -1 -1 0 0 -1 -0 -3 -1 -3 -1 -3 -0 1 0 -1 -0 -1 -1 0 0 0 1 1 1
Height
3183 3185 3186 3188 3189 3190 3190 3191 3192 3192 3192 3192 3192 3193 3194 3194 3194 3195 3196 3196 3196 3197 3197 3197 3196 3196 3195 3195 3195 3194 3192 3190 3189
3185 3186 3186 3189 3190 3192 3192 3193 3193 3194 3194 3194 3195 3195 3196 3197 3197 3197 3197 3198 3199 3199 3199 3199 3198 3198 3197 3197 3197 3196 3196 3193 3191
3186 3188 3188 3190 3190 3192 3194 3194 3195 3196 3196 3197 3197 3197 3198 3199 3199 3199 3199 3200 3200 3201 3201 3201 3201 3200 3200 3199 3199 3199 3198 3197 3194
3187 3188 3190 3190 3192 3193 3194 3195 3196 3197 3198 3198 3199 3199 3200 3200 3201 3202 3202 3201 3201 3202 3202 3203 3203 3202 3202 3202 3202 3202 3200 3198 3198
3187 3188 3190 3191 3192 3193 3195 3196 3197 3198 3200 3200 3200 3201 3201 3202 3203 3203 3204 3204 3203 3203 3203 3204 3204 3204 3204 3204 3204 3204 3203 3201 3200
3187 3188 3190 3191 3192 3193 3195 3196 3197 3199 3200 3201 3201 3202 3202 3203 3204 3204 3205 3205 3205 3205 3204 3204 3204 3205 3205 3205 3205 3205 3205 3204 3202
3187 3188 3190 3191 3193 3194 3195 3196 3197 3199 3201 3201 3202 3203 3203 3204 3205 3205 3206 3206 3206 3206 3206 3205 3205 3206 3206 3206 3206 3207 3206 3206 3205
3187 3188 3190 3191 3193 3194 3195 3196 3198 3199 3201 3202 3203 3204 3204 3205 3205 3206 3206 3207 3206 3207 3207 3206 3206 3206 3206 3207 3207 3207 3208 3208 3207
3186 3188 3190 3191 3193 3194 3195 3196 3198 3199 3201 3202 3203 3204 3204 3205 3206 3206 3206 3207 3207 3207 3207 3207 3207 3207 3207 3207 3208 3208 3207 3208 3208
3186 3187 3189 3191 3193 3194 3195 3196 3198 3199 3200 3202 3203 3204 3204 3205 3206 3206 3207 3206 3207 3207 3207 3207 3207 3207 3207 3208 3208 3208 3208 3207 3208
3185 3187 3189 3191 3192 3194 3195 3196 3197 3199 3199 3200 3202 3203 3204 3204 3205 3206 3206 3206 3207 3207 3207 3207 3207 3207 3207 3208 3208 3208 3208 3208 3207
3184 3186 3188 3190 3192 3193 3195 3195 3197 3198 3199 3200 3201 3202 3203 3204 3205 3206 3206 3207 3207 3207 3207 3207 3207 3207 3207 3207 3208 3208 3208 3208 3208
3182 3184 3186 3188 3190 3192 3194 3195 3196 3198 3199 3200 3201 3202 3203 3203 3204 3205 3206 3206 3207 3207 3207 3207 3207 3207 3207 3208 3207 3207 3208 3208 3207
3181 3182 3184 3186 3188 3190 3191 3193 3195 3197 3198 3199 3200 3201 3201 3202 3202 3203 3204 3205 3206 3206 3206 3207 3207 3207 3207 3207 3207 3207 3207 3207 3207
3178 3180 3182 3184 3186 3188 3190 3191 3192 3194 3196 3197 3198 3199 3200 3201 3202 3202 3203 3203 3204 3205 3205 3206 3206 3206 3206 3206 3207 3206 3207 3207 3207
3175 3177 3179 3181 3183 3185 3187 3188 3190 3191 3193 3194 3196 3196 3198 3199 3201 3201 3201 3202 3202 3203 3203 3204 3204 3205 3205 3206 3206 3206 3206 3206 3207
3171 3173 3176 3178 3180 3181 3184 3186 3188 3189 3190 3192 3193 3194 3196 3197 3197 3199 3200 3200 3200 3200 3201 3201 3202 3203 3203 3204 3204 3205 3205 3205 3206
3167 3169 3172 3174 3176 3178 3180 3182 3184 3185 3186 3187 3189 3191 3192 3193 3194 3196 3197 3198 3198 3198 3198 3199 3200 3200 3200 3201 3201 3202 3203 3203 3204
3162 3165 3167 3170 3172 3174 3175 3178 3179 3180 3182 3183 3184 3187 3188 3189 3191 3192 3193 3194 3195 3195 3195 3196 3196 3197 3198 3198 3199 3199 3200 3201 3201
3158 3160 3162 3165 3167 3169 3170 3172 3173 3175 3177 3178 3180 3181 3183 3184 3185 3187 3189 3190 3190 3191 3193 3193 3193 3194 3194 3195 3195 3196 3197 3198 3198